| time (UTC) | temp C | wind direction | speed KPH | gust KPH | rain 1hr cm | rain 24hr cm | rain mn cm | humidity % | barometer mb |
| 20260502200035 | 2 | 63 | 0.0 | 0.0 | 0.00 | 0.00 | 0.00 | 94 | 1023.1 |
| 20260502193046 | 3 | 63 | 0.0 | 0.0 | 0.00 | 0.00 | 0.00 | 93 | 1023.1 |
| 20260502191540 | 3 | 63 | 1.6 | 3.2 | 0.00 | 0.00 | 0.00 | 92 | 1023.0 |
| 20260502184553 | 5 | 209 | 0.0 | 3.2 | 0.00 | 0.00 | 0.00 | 89 | 1022.9 |
| 20260502181544 | 7 | 241 | 0.0 | 1.6 | 0.00 | 0.00 | 0.00 | 83 | 1022.9 |
| 20260502161539 | 11 | 158 | 6.4 | 14.5 | 0.00 | 0.00 | 0.00 | 68 | 1023.2 |
| 20260502123040 | 11 | 192 | 4.8 | 14.5 | 0.00 | 0.00 | 0.00 | 70 | 1025.2 |
| 20260502121527 | 11 | 300 | 11.3 | 20.9 | 0.00 | 0.00 | 0.00 | 72 | 1025.4 |
| 20260502114617 | 10 | 331 | 11.3 | 19.3 | 0.00 | 0.00 | 0.00 | 72 | 1025.5 |
| 20260502113020 | 10 | 260 | 12.9 | 22.5 | 0.00 | 0.00 | 0.00 | 72 | 1025.7 |
| 20260502110034 | 10 | 247 | 4.8 | 17.7 | 0.00 | 0.00 | 0.00 | 73 | 1026.2 |
| 20260502103045 | 10 | 302 | 9.7 | 19.3 | 0.00 | 0.00 | 0.00 | 72 | 1026.4 |
| 20260502101548 | 9 | 274 | 6.4 | 17.7 | 0.00 | 0.00 | 0.00 | 72 | 1026.6 |
| 20260502070048 | 6 | 304 | 4.8 | 14.5 | 0.00 | 0.03 | 0.00 | 77 | 1027.5 |
| 20260502063041 | 6 | 10 | 1.6 | 6.4 | 0.00 | 0.05 | 0.00 | 80 | 1027.4 |
| 20260502060037 | 2 | 108 | 0.0 | 3.2 | 0.00 | 0.05 | 0.00 | 96 | 1027.5 |
| 20260502053029 | -1 | 129 | 0.0 | 0.0 | 0.00 | 0.05 | 0.00 | 96 | 1027.4 |
| 20260502050042 | -2 | 129 | 0.0 | 0.0 | 0.00 | 0.05 | 0.00 | 96 | 1027.3 |
| 20260502043028 | -2 | 129 | 0.0 | 0.0 | 0.00 | 0.05 | 0.00 | 96 | 1027.3 |
| 20260502041516 | -2 | 129 | 0.0 | 0.0 | 0.00 | 0.05 | 0.00 | 96 | 1027.2 |
| 20260502034533 | -2 | 129 | 0.0 | 0.0 | 0.00 | 0.05 | 0.00 | 96 | 1027.3 |
| 20260502031520 | -2 | 129 | 0.0 | 0.0 | 0.00 | 0.05 | 0.00 | 96 | 1027.3 |
| 20260502024541 | -1 | 129 | 0.0 | 0.0 | 0.00 | 0.05 | 0.00 | 96 | 1027.4 |
| 20260502023035 | -1 | 129 | 0.0 | 0.0 | 0.00 | 0.05 | 0.00 | 96 | 1027.4 |
| 20260502020043 | -1 | 129 | 0.0 | 0.0 | 0.00 | 0.05 | 0.00 | 96 | 1027.6 |
| 20260502013054 | 0 | 129 | 0.0 | 0.0 | 0.00 | 0.05 | 0.00 | 95 | 1027.6 |
| 20260502011537 | 0 | 129 | 0.0 | 0.0 | 0.00 | 0.05 | 0.00 | 95 | 1027.6 |
| 20260502010031 | 0 | 129 | 0.0 | 0.0 | 0.00 | 0.05 | 0.00 | 94 | 1027.6 |
| 20260502004516 | 0 | 129 | 0.0 | 0.0 | 0.00 | 0.05 | 0.00 | 94 | 1027.6 |
| 20260502001530 | 1 | 151 | 3.2 | 6.4 | 0.00 | 0.05 | 0.00 | 93 | 1027.9 |
| 20260502000025 | 1 | 145 | 3.2 | 4.8 | 0.00 | 0.05 | 0.00 | 92 | 1028.1 |
| 20260501233029 | 2 | 129 | 3.2 | 4.8 | 0.00 | 0.05 | 0.00 | 92 | 1028.1 |
| 20260501230040 | 1 | 149 | 3.2 | 6.4 | 0.00 | 0.05 | 0.00 | 95 | 1028.0 |
| 20260501223022 | 0 | 94 | 0.0 | 3.2 | 0.00 | 0.05 | 0.00 | 96 | 1028.0 |
| 20260501220135 | 0 | 94 | 0.0 | 0.0 | 0.00 | 0.05 | 0.00 | 96 | 1027.7 |
| 20260501214534 | 0 | 94 | 0.0 | 0.0 | 0.00 | 0.05 | 0.05 | 96 | 1027.7 |
| 20260501211528 | 0 | 94 | 0.0 | 0.0 | 0.00 | 0.05 | 0.05 | 95 | 1027.6 |
| 20260501204554 | 0 | 94 | 0.0 | 0.0 | 0.00 | 0.05 | 0.05 | 95 | 1027.5 |
| 20260501203045 | 0 | 94 | 0.0 | 3.2 | 0.00 | 0.05 | 0.05 | 94 | 1027.5 |
| 20260501201543 | 0 | 83 | 0.0 | 3.2 | 0.00 | 0.05 | 0.05 | 95 | 1027.6 |